Location: Angola by the Bay
(38.6709°N, 75.1746°W)
Time: 06:42:02
(UTC+00:00)

DIWATA 2B (PO-101) - Pass Details

Date: 09 December 2024
Orbit: 569 x 582 km, 98.1° (Epoch: 18 January)

Event Time Altitude Azimuth Distance (km) Brightness Sun altitude
Rises 22:34:32 0° 2° (N) 2,788 ? -10.6°
Reaches altitude 10° 22:36:50 10° 352° (N) 1,883 ? -11.0°
Maximum altitude 22:40:28 32° 289° (WNW) 991 ? -11.7°
Drops below altitude 10° 22:44:04 10° 226° (SW) 1,866 ? -12.4°
Sets 22:46:21 0° 216° (SW) 2,757 ? -12.8°
